Location: Newark
(41.9000°N, 12.4833°E)
Time: 01:06:05
(UTC+00:00)

EO-88 - Pass Details

Date: 30 May 2019
Orbit: 484 x 494 km, 97.4° (Epoch: 16 June)

Event Time Altitude Azimuth Distance (km) Brightness Sun altitude
Exits shadow 19:31:01 - 98° (E) 1,808 ? -9.0°
Reaches altitude 10° 19:31:35 10° 91° (E) 1,692 ? -9.1°
Maximum altitude 19:33:10 13° 65° (ENE) 1,542 ? -9.3°
Drops below altitude 10° 19:34:45 10° 39° (NE) 1,698 ? -9.5°
Sets 19:37:51 0° 10° (N) 2,586 ? -10.0°
